date,time,SUV Intensity [MED/Hr],UV Index,Daily total [MED],Since Last [MED]
09/09/2023,00:01:03,0.000,0.0,0.0,0.0
09/09/2023,00:02:04,-0.000,0.0,0.0,0.0
09/09/2023,00:03:04,0.000,0.0,0.0,0.0
09/09/2023,00:04:04,-0.000,0.0,0.0,0.0
09/09/2023,00:05:04,0.001,0.0,0.0,0.0
09/09/2023,00:06:04,0.000,0.0,0.0,0.0
09/09/2023,00:07:04,0.001,0.0,0.0,0.0
09/09/2023,00:08:04,0.001,0.0,0.0,0.0
09/09/2023,00:09:04,0.001,0.0,0.0,0.0
09/09/2023,00:10:04,0.000,0.0,0.0,0.0
09/09/2023,00:11:04,0.001,0.0,0.0,0.0
09/09/2023,00:12:04,0.000,0.0,0.0,0.0
09/09/2023,00:13:04,0.000,0.0,0.0,0.0
09/09/2023,00:14:04,0.000,0.0,0.0,0.0
09/09/2023,00:15:04,0.001,0.0,0.0,0.0
09/09/2023,00:16:04,0.001,0.0,0.0,0.0
09/09/2023,00:17:03,-0.000,0.0,0.0,0.0
09/09/2023,00:18:04,0.000,0.0,0.0,0.0
09/09/2023,00:19:04,0.000,0.0,0.0,0.0
09/09/2023,00:20:04,0.001,0.0,0.0,0.0
09/09/2023,00:21:03,0.000,0.0,0.0,0.0
09/09/2023,00:22:04,-0.000,0.0,0.0,0.0
09/09/2023,00:23:03,0.001,0.0,0.0,0.0
09/09/2023,00:24:03,-0.001,0.0,0.0,0.0
09/09/2023,00:25:04,0.000,0.0,0.0,0.0
09/09/2023,00:26:03,0.001,0.0,0.0,0.0
09/09/2023,00:27:04,0.000,0.0,0.0,0.0
09/09/2023,00:28:04,0.000,0.0,0.0,0.0
09/09/2023,00:29:04,0.000,0.0,0.0,0.0
09/09/2023,00:30:04,0.000,0.0,0.0,0.0
09/09/2023,00:31:03,0.001,0.0,0.0,0.0
09/09/2023,00:32:04,0.001,0.0,0.0,0.0
09/09/2023,00:33:04,-0.000,0.0,0.0,0.0
09/09/2023,00:34:03,0.001,0.0,0.0,0.0
09/09/2023,00:35:04,0.001,0.0,0.0,0.0
09/09/2023,00:36:04,-0.000,0.0,0.0,0.0
09/09/2023,00:37:04,0.000,0.0,0.0,0.0
09/09/2023,00:38:03,0.000,0.0,0.0,0.0
09/09/2023,00:39:04,0.000,0.0,0.0,0.0
09/09/2023,00:40:04,0.000,0.0,0.0,0.0
09/09/2023,00:41:05,-0.001,0.0,0.0,0.0
09/09/2023,00:42:05,0.000,0.0,0.0,0.0
09/09/2023,00:43:04,-0.000,0.0,0.0,0.0
09/09/2023,00:44:04,0.000,0.0,0.0,0.0
09/09/2023,00:45:04,0.002,0.0,0.0,0.0
09/09/2023,00:46:04,0.000,0.0,0.0,0.0
09/09/2023,00:47:04,0.001,0.0,0.0,0.0
09/09/2023,00:48:02,0.000,0.0,0.0,0.0
09/09/2023,00:49:02,-0.000,0.0,0.0,0.0
09/09/2023,00:50:04,0.001,0.0,0.0,0.0
09/09/2023,00:51:04,0.001,0.0,0.0,0.0
09/09/2023,00:52:03,0.000,0.0,0.0,0.0
09/09/2023,00:53:04,-0.000,0.0,0.0,0.0
09/09/2023,00:54:03,-0.001,0.0,0.0,0.0
09/09/2023,00:55:04,-0.001,0.0,0.0,0.0
09/09/2023,00:56:04,0.000,0.0,0.0,0.0
09/09/2023,00:57:04,0.000,0.0,0.0,0.0
09/09/2023,00:58:04,0.001,0.0,0.0,0.0
09/09/2023,00:59:04,0.000,0.0,0.0,0.0
09/09/2023,01:00:03,0.000,0.0,0.0,0.0
09/09/2023,01:01:04,0.000,0.0,0.0,0.0
09/09/2023,01:02:04,0.002,0.0,0.0,0.0
09/09/2023,01:03:04,-0.001,0.0,0.0,0.0
09/09/2023,01:04:04,0.001,0.0,0.0,0.0
09/09/2023,01:05:04,0.000,0.0,0.0,0.0
09/09/2023,01:06:02,0.000,0.0,0.0,0.0
09/09/2023,01:07:02,0.001,0.0,0.0,0.0
09/09/2023,01:08:04,0.001,0.0,0.0,0.0
09/09/2023,01:09:04,0.001,0.0,0.0,0.0
09/09/2023,01:10:02,0.001,0.0,0.0,0.0
09/09/2023,01:11:02,0.001,0.0,0.0,0.0
09/09/2023,01:12:04,0.000,0.0,0.0,0.0
09/09/2023,01:13:04,0.001,0.0,0.0,0.0
09/09/2023,01:14:04,0.000,0.0,0.0,0.0
09/09/2023,01:15:04,0.000,0.0,0.0,0.0
09/09/2023,01:16:04,0.000,0.0,0.0,0.0
09/09/2023,01:17:02,0.001,0.0,0.0,0.0
09/09/2023,01:18:01,0.000,0.0,0.0,0.0
09/09/2023,01:19:04,0.001,0.0,0.0,0.0
09/09/2023,01:20:04,0.000,0.0,0.0,0.0
09/09/2023,01:21:04,0.001,0.0,0.0,0.0
09/09/2023,01:22:04,0.001,0.0,0.0,0.0
09/09/2023,01:23:04,-0.001,0.0,0.0,0.0
09/09/2023,01:24:04,-0.000,0.0,0.0,0.0
09/09/2023,01:25:04,0.001,0.0,0.0,0.0
09/09/2023,01:26:03,0.001,0.0,0.0,0.0
09/09/2023,01:27:04,0.001,0.0,0.0,0.0
09/09/2023,01:28:04,0.001,0.0,0.0,0.0
09/09/2023,01:29:04,0.000,0.0,0.0,0.0
09/09/2023,01:30:02,0.000,0.0,0.0,0.0
09/09/2023,01:31:02,0.001,0.0,0.0,0.0
09/09/2023,01:32:04,0.001,0.0,0.0,0.0
09/09/2023,01:33:04,0.000,0.0,0.0,0.0
09/09/2023,01:34:05,0.001,0.0,0.0,0.0
09/09/2023,01:35:04,0.001,0.0,0.0,0.0
09/09/2023,01:36:04,0.001,0.0,0.0,0.0
09/09/2023,01:37:04,0.001,0.0,0.0,0.0
09/09/2023,01:38:03,0.000,0.0,0.0,0.0
09/09/2023,01:39:04,-0.000,0.0,0.0,0.0
09/09/2023,01:40:04,0.000,0.0,0.0,0.0
09/09/2023,01:41:04,0.001,0.0,0.0,0.0
09/09/2023,01:42:04,0.001,0.0,0.0,0.0
09/09/2023,01:43:04,0.001,0.0,0.0,0.0
09/09/2023,01:44:04,0.001,0.0,0.0,0.0
09/09/2023,01:45:04,0.001,0.0,0.0,0.0
09/09/2023,01:46:04,-0.000,0.0,0.0,0.0
09/09/2023,01:47:04,0.002,0.0,0.0,0.0
09/09/2023,01:48:04,0.001,0.0,0.0,0.0
09/09/2023,01:49:04,0.001,0.0,0.0,0.0
09/09/2023,01:50:04,-0.000,0.0,0.0,0.0
09/09/2023,01:51:04,0.001,0.0,0.0,0.0
09/09/2023,01:52:04,0.000,0.0,0.0,0.0
09/09/2023,01:53:04,0.002,0.0,0.0,0.0
09/09/2023,01:54:04,0.000,0.0,0.0,0.0
09/09/2023,01:55:04,0.002,0.0,0.0,0.0
09/09/2023,01:56:04,0.001,0.0,0.0,0.0
09/09/2023,01:57:04,0.001,0.0,0.0,0.0
09/09/2023,01:58:04,-0.000,0.0,0.0,0.0
09/09/2023,01:59:04,0.001,0.0,0.0,0.0
09/09/2023,02:00:04,0.001,0.0,0.0,0.0
09/09/2023,02:01:04,0.002,0.0,0.0,0.0
09/09/2023,02:02:04,0.002,0.0,0.0,0.0
09/09/2023,02:03:04,0.001,0.0,0.0,0.0
09/09/2023,02:04:04,0.000,0.0,0.0,0.0
09/09/2023,02:05:04,0.001,0.0,0.0,0.0
09/09/2023,02:06:04,0.001,0.0,0.0,0.0
09/09/2023,02:07:08,0.001,0.0,0.0,0.0
09/09/2023,02:08:05,0.002,0.0,0.0,0.0
09/09/2023,02:09:04,0.001,0.0,0.0,0.0
09/09/2023,02:10:04,0.001,0.0,0.0,0.0
09/09/2023,02:11:04,0.002,0.0,0.0,0.0
09/09/2023,02:12:05,0.001,0.0,0.0,0.0
09/09/2023,02:13:04,-0.000,0.0,0.0,0.0
09/09/2023,02:14:02,0.001,0.0,0.0,0.0
09/09/2023,02:15:02,0.001,0.0,0.0,0.0
09/09/2023,02:16:04,-0.000,0.0,0.0,0.0
09/09/2023,02:17:04,0.002,0.0,0.0,0.0
09/09/2023,02:18:04,0.000,0.0,0.0,0.0
09/09/2023,02:19:04,0.001,0.0,0.0,0.0
09/09/2023,02:20:04,0.001,0.0,0.0,0.0
09/09/2023,02:21:04,0.001,0.0,0.0,0.0
09/09/2023,02:22:04,0.001,0.0,0.0,0.0
09/09/2023,02:23:04,0.000,0.0,0.0,0.0
09/09/2023,02:24:04,0.001,0.0,0.0,0.0
09/09/2023,02:25:04,0.001,0.0,0.0,0.0
09/09/2023,02:26:04,0.001,0.0,0.0,0.0
09/09/2023,02:27:27,0.000,0.0,0.0,0.0
09/09/2023,02:28:04,0.002,0.0,0.0,0.0
09/09/2023,02:29:04,0.001,0.0,0.0,0.0
09/09/2023,02:30:04,0.002,0.0,0.0,0.0
09/09/2023,02:31:04,0.002,0.0,0.0,0.0
09/09/2023,02:32:05,0.001,0.0,0.0,0.0
09/09/2023,02:33:04,0.001,0.0,0.0,0.0
09/09/2023,02:34:04,0.001,0.0,0.0,0.0
09/09/2023,02:35:04,0.000,0.0,0.0,0.0
09/09/2023,02:36:04,-0.000,0.0,0.0,0.0
09/09/2023,02:37:04,0.001,0.0,0.0,0.0
09/09/2023,02:38:04,0.001,0.0,0.0,0.0
09/09/2023,02:39:04,0.000,0.0,0.0,0.0
09/09/2023,02:40:04,0.002,0.0,0.0,0.0
09/09/2023,02:41:04,0.001,0.0,0.0,0.0
09/09/2023,02:42:04,0.001,0.0,0.0,0.0
09/09/2023,02:43:04,0.001,0.0,0.0,0.0
09/09/2023,02:44:04,0.001,0.0,0.0,0.0
09/09/2023,02:45:04,0.001,0.0,0.0,0.0
09/09/2023,02:46:04,0.000,0.0,0.0,0.0
09/09/2023,02:47:04,0.000,0.0,0.0,0.0
09/09/2023,02:48:04,0.001,0.0,0.0,0.0
09/09/2023,02:49:04,0.001,0.0,0.0,0.0
09/09/2023,02:50:02,0.001,0.0,0.0,0.0
09/09/2023,02:51:02,0.002,0.0,0.0,0.0
09/09/2023,02:52:05,0.001,0.0,0.0,0.0
09/09/2023,02:53:04,0.001,0.0,0.0,0.0
09/09/2023,02:54:04,0.000,0.0,0.0,0.0
09/09/2023,02:55:04,0.001,0.0,0.0,0.0
09/09/2023,02:56:04,0.000,0.0,0.0,0.0
09/09/2023,02:57:04,0.001,0.0,0.0,0.0
09/09/2023,02:58:04,0.001,0.0,0.0,0.0
09/09/2023,02:59:04,0.001,0.0,0.0,0.0
09/09/2023,03:00:04,0.002,0.0,0.0,0.0
09/09/2023,03:01:04,0.001,0.0,0.0,0.0
09/09/2023,03:02:04,0.001,0.0,0.0,0.0
09/09/2023,03:03:05,0.001,0.0,0.0,0.0
09/09/2023,03:04:04,0.002,0.0,0.0,0.0
09/09/2023,03:05:04,0.000,0.0,0.0,0.0
09/09/2023,03:06:04,0.001,0.0,0.0,0.0
09/09/2023,03:07:04,0.000,0.0,0.0,0.0
09/09/2023,03:08:04,0.001,0.0,0.0,0.0
09/09/2023,03:09:05,0.000,0.0,0.0,0.0
09/09/2023,03:10:04,0.001,0.0,0.0,0.0
09/09/2023,03:11:04,0.002,0.0,0.0,0.0
09/09/2023,03:12:05,0.002,0.0,0.0,0.0
09/09/2023,03:13:04,0.001,0.0,0.0,0.0
09/09/2023,03:14:04,0.001,0.0,0.0,0.0
09/09/2023,03:15:04,0.000,0.0,0.0,0.0
09/09/2023,03:16:04,0.001,0.0,0.0,0.0
09/09/2023,03:17:04,0.002,0.0,0.0,0.0
09/09/2023,03:18:04,0.001,0.0,0.0,0.0
09/09/2023,03:19:04,0.001,0.0,0.0,0.0
09/09/2023,03:20:05,0.001,0.0,0.0,0.0
09/09/2023,03:21:04,0.002,0.0,0.0,0.0
09/09/2023,03:22:04,0.001,0.0,0.0,0.0
09/09/2023,03:23:04,0.001,0.0,0.0,0.0
09/09/2023,03:24:04,0.002,0.0,0.0,0.0
09/09/2023,03:25:04,0.001,0.0,0.0,0.0
09/09/2023,03:26:05,0.001,0.0,0.0,0.0
09/09/2023,03:27:04,0.001,0.0,0.0,0.0
09/09/2023,03:28:05,0.001,0.0,0.0,0.0
09/09/2023,03:29:04,0.000,0.0,0.0,0.0
09/09/2023,03:30:05,0.002,0.0,0.0,0.0
09/09/2023,03:31:04,0.000,0.0,0.0,0.0
09/09/2023,03:32:04,0.001,0.0,0.0,0.0
09/09/2023,03:33:04,0.001,0.0,0.0,0.0
09/09/2023,03:34:04,0.001,0.0,0.0,0.0
09/09/2023,03:35:04,0.000,0.0,0.0,0.0
09/09/2023,03:36:04,0.001,0.0,0.0,0.0
09/09/2023,03:37:05,0.001,0.0,0.0,0.0
09/09/2023,03:38:03,0.001,0.0,0.0,0.0
09/09/2023,03:39:26,0.001,0.0,0.0,0.0
09/09/2023,03:40:03,0.001,0.0,0.0,0.0
09/09/2023,03:41:04,0.001,0.0,0.0,0.0
09/09/2023,03:42:04,0.000,0.0,0.0,0.0
09/09/2023,03:43:05,0.001,0.0,0.0,0.0
09/09/2023,03:44:04,0.002,0.0,0.0,0.0
09/09/2023,03:45:05,0.001,0.0,0.0,0.0
09/09/2023,03:46:04,0.001,0.0,0.0,0.0
09/09/2023,03:47:04,0.001,0.0,0.0,0.0
09/09/2023,03:48:04,0.001,0.0,0.0,0.0
09/09/2023,03:49:04,0.001,0.0,0.0,0.0
09/09/2023,03:50:04,0.000,0.0,0.0,0.0
09/09/2023,03:51:02,0.001,0.0,0.0,0.0
09/09/2023,03:52:02,0.002,0.0,0.0,0.0
09/09/2023,03:53:05,0.001,0.0,0.0,0.0
09/09/2023,03:54:04,0.001,0.0,0.0,0.0
09/09/2023,03:55:04,0.001,0.0,0.0,0.0
09/09/2023,03:56:04,0.001,0.0,0.0,0.0
09/09/2023,03:57:04,0.001,0.0,0.0,0.0
09/09/2023,03:58:04,0.001,0.0,0.0,0.0
09/09/2023,03:59:05,0.001,0.0,0.0,0.0
09/09/2023,04:00:04,0.002,0.0,0.0,0.0
09/09/2023,04:01:05,0.001,0.0,0.0,0.0
09/09/2023,04:02:04,0.001,0.0,0.0,0.0
09/09/2023,04:03:05,-0.000,0.0,0.0,0.0
09/09/2023,04:04:04,0.001,0.0,0.0,0.0
09/09/2023,04:05:04,0.001,0.0,0.0,0.0
09/09/2023,04:06:04,0.001,0.0,0.0,0.0
09/09/2023,04:07:04,0.002,0.0,0.0,0.0
09/09/2023,04:08:04,0.002,0.0,0.0,0.0
09/09/2023,04:09:04,0.001,0.0,0.0,0.0
09/09/2023,04:10:04,0.000,0.0,0.0,0.0
09/09/2023,04:11:04,0.000,0.0,0.0,0.0
09/09/2023,04:12:05,0.002,0.0,0.0,0.0
09/09/2023,04:13:04,0.001,0.0,0.0,0.0
09/09/2023,04:14:04,0.001,0.0,0.0,0.0
09/09/2023,04:15:04,0.000,0.0,0.0,0.0
09/09/2023,04:16:04,0.001,0.0,0.0,0.0
09/09/2023,04:17:04,0.002,0.0,0.0,0.0
09/09/2023,04:18:05,0.002,0.0,0.0,0.0
09/09/2023,04:19:04,0.000,0.0,0.0,0.0
09/09/2023,04:20:04,0.001,0.0,0.0,0.0
09/09/2023,04:21:04,0.002,0.0,0.0,0.0
09/09/2023,04:22:04,0.000,0.0,0.0,0.0
09/09/2023,04:23:04,0.001,0.0,0.0,0.0
09/09/2023,04:24:05,0.000,0.0,0.0,0.0
09/09/2023,04:25:04,0.002,0.0,0.0,0.0
09/09/2023,04:26:04,0.001,0.0,0.0,0.0
09/09/2023,04:27:05,0.001,0.0,0.0,0.0
09/09/2023,04:28:04,0.001,0.0,0.0,0.0
09/09/2023,04:29:04,0.001,0.0,0.0,0.0
09/09/2023,04:30:05,0.002,0.0,0.0,0.0
09/09/2023,04:31:04,0.002,0.0,0.0,0.0
09/09/2023,04:32:04,0.001,0.0,0.0,0.0
09/09/2023,04:33:04,0.000,0.0,0.0,0.0
09/09/2023,04:34:02,0.001,0.0,0.0,0.0
09/09/2023,04:35:02,0.001,0.0,0.0,0.0
09/09/2023,04:36:04,0.002,0.0,0.0,0.0
09/09/2023,04:37:05,0.001,0.0,0.0,0.0
09/09/2023,04:38:04,0.002,0.0,0.0,0.0
09/09/2023,04:39:04,0.001,0.0,0.0,0.0
09/09/2023,04:40:04,0.001,0.0,0.0,0.0
09/09/2023,04:41:04,0.001,0.0,0.0,0.0
09/09/2023,04:42:02,0.001,0.0,0.0,0.0
09/09/2023,04:43:02,0.001,0.0,0.0,0.0
09/09/2023,04:44:04,0.001,0.0,0.0,0.0
09/09/2023,04:45:04,0.002,0.0,0.0,0.0
09/09/2023,04:46:04,0.001,0.0,0.0,0.0
09/09/2023,04:47:04,0.002,0.0,0.0,0.0
09/09/2023,04:48:04,0.001,0.0,0.0,0.0
09/09/2023,04:49:05,0.002,0.0,0.0,0.0
09/09/2023,04:50:04,0.001,0.0,0.0,0.0
09/09/2023,04:51:04,0.001,0.0,0.0,0.0
09/09/2023,04:52:04,0.001,0.0,0.0,0.0
09/09/2023,04:53:04,0.001,0.0,0.0,0.0
09/09/2023,04:54:04,0.000,0.0,0.0,0.0
09/09/2023,04:55:04,0.000,0.0,0.0,0.0
09/09/2023,04:56:04,0.001,0.0,0.0,0.0
09/09/2023,04:57:04,0.002,0.0,0.0,0.0
09/09/2023,04:58:04,0.001,0.0,0.0,0.0
09/09/2023,04:59:05,0.001,0.0,0.0,0.0
09/09/2023,05:00:04,0.001,0.0,0.0,0.0
09/09/2023,05:01:04,0.002,0.0,0.0,0.0
09/09/2023,05:02:33,0.001,0.0,0.0,0.0
09/09/2023,05:04:05,0.001,0.0,0.0,0.0
09/09/2023,05:05:04,0.001,0.0,0.0,0.0
09/09/2023,05:06:04,0.001,0.0,0.0,0.0
09/09/2023,05:07:05,0.002,0.0,0.0,0.0
09/09/2023,05:08:04,0.001,0.0,0.0,0.0
09/09/2023,05:09:04,0.001,0.0,0.0,0.0
09/09/2023,05:10:04,0.001,0.0,0.0,0.0
09/09/2023,05:11:04,0.001,0.0,0.0,0.0
09/09/2023,05:12:05,0.003,0.0,0.0,0.0
09/09/2023,05:13:04,0.002,0.0,0.0,0.0
09/09/2023,05:14:05,0.003,0.0,0.0,0.0
09/09/2023,05:15:04,0.002,0.0,0.0,0.0
09/09/2023,05:16:04,0.002,0.0,0.0,0.0
09/09/2023,05:17:05,0.002,0.0,0.0,0.0
09/09/2023,05:18:04,0.002,0.0,0.0,0.0
09/09/2023,05:19:04,0.002,0.0,0.0,0.0
09/09/2023,05:20:05,0.002,0.0,0.0,0.0
09/09/2023,05:21:04,0.002,0.0,0.0,0.0
09/09/2023,05:22:05,0.002,0.0,0.0,0.0
09/09/2023,05:23:05,0.003,0.0,0.0,0.0
09/09/2023,05:24:04,0.003,0.0,0.0,0.0
09/09/2023,05:25:04,0.003,0.0,0.0,0.0
09/09/2023,05:26:04,0.003,0.0,0.0,0.0
09/09/2023,05:27:05,0.003,0.0,0.0,0.0
09/09/2023,05:28:04,0.003,0.0,0.0,0.0
09/09/2023,05:29:04,0.003,0.0,0.0,0.0
09/09/2023,05:30:05,0.004,0.0,0.0,0.0
09/09/2023,05:31:04,0.004,0.0,0.0,0.0
09/09/2023,05:32:04,0.005,0.0,0.0,0.0
09/09/2023,05:33:05,0.004,0.0,0.0,0.0
09/09/2023,05:34:04,0.005,0.0,0.0,0.0
09/09/2023,05:35:04,0.005,0.0,0.0,0.0
09/09/2023,05:36:05,0.005,0.0,0.0,0.0
09/09/2023,05:37:04,0.005,0.0,0.0,0.0
09/09/2023,05:38:04,0.005,0.0,0.0,0.0
09/09/2023,05:39:04,0.007,0.0,0.0,0.0
09/09/2023,05:40:04,0.006,0.0,0.0,0.0
09/09/2023,05:41:06,0.006,0.0,0.0,0.0
09/09/2023,05:42:04,0.007,0.0,0.0,0.0
09/09/2023,05:43:04,0.007,0.0,0.0,0.0
09/09/2023,05:44:05,0.007,0.0,0.0,0.0
09/09/2023,05:45:05,0.008,0.0,0.001,0.001
09/09/2023,05:46:05,0.008,0.0,0.001,0.0
09/09/2023,05:47:04,0.008,0.0,0.001,0.0
09/09/2023,05:48:05,0.009,0.0,0.001,0.0
09/09/2023,05:49:04,0.009,0.0,0.001,0.0
09/09/2023,05:50:04,0.010,0.0,0.001,0.0
09/09/2023,05:51:02,0.010,0.0,0.001,0.0
09/09/2023,05:52:02,0.011,0.0,0.002,0.001
09/09/2023,05:53:04,0.011,0.0,0.002,0.0
09/09/2023,05:54:05,0.011,0.0,0.002,0.0
09/09/2023,05:55:04,0.012,0.0,0.002,0.0
09/09/2023,05:56:04,0.013,0.0,0.002,0.0
09/09/2023,05:57:05,0.013,0.0,0.003,0.001
09/09/2023,05:58:04,0.014,0.0,0.003,0.0
09/09/2023,05:59:05,0.014,0.0,0.003,0.0
09/09/2023,06:00:04,0.016,0.0,0.003,0.0
09/09/2023,06:01:04,0.016,0.0,0.004,0.001
09/09/2023,06:02:05,0.016,0.0,0.004,0.0
09/09/2023,06:03:04,0.017,0.0,0.004,0.0
09/09/2023,06:04:05,0.017,0.0,0.004,0.0
09/09/2023,06:05:04,0.019,0.0,0.005,0.001
09/09/2023,06:06:05,0.019,0.0,0.005,0.0
09/09/2023,06:07:04,0.020,0.0,0.005,0.0
09/09/2023,06:08:04,0.021,0.0,0.006,0.001
09/09/2023,06:09:04,0.021,0.0,0.006,0.0
09/09/2023,06:10:04,0.023,0.0,0.006,0.0
09/09/2023,06:11:04,0.023,0.0,0.007,0.001
09/09/2023,06:12:05,0.024,0.0,0.007,0.0
09/09/2023,06:13:05,0.024,0.0,0.008,0.001
09/09/2023,06:14:05,0.026,0.0,0.008,0.0
09/09/2023,06:15:04,0.027,0.0,0.009,0.001
09/09/2023,06:16:04,0.028,0.0,0.009,0.0
09/09/2023,06:17:04,0.029,0.0,0.009,0.0
09/09/2023,06:18:04,0.029,0.0,0.01,0.001
09/09/2023,06:19:05,0.030,0.0,0.01,0.0
09/09/2023,06:20:04,0.032,0.0,0.011,0.001
09/09/2023,06:21:04,0.033,0.0,0.011,0.0
09/09/2023,06:22:05,0.033,0.0,0.012,0.001
09/09/2023,06:23:04,0.036,0.0,0.013,0.001
09/09/2023,06:24:05,0.036,0.0,0.013,0.0
09/09/2023,06:25:04,0.037,0.0,0.014,0.001
09/09/2023,06:26:05,0.038,0.0,0.014,0.0
09/09/2023,06:27:05,0.040,0.0,0.015,0.001
09/09/2023,06:28:04,0.041,0.0,0.016,0.001
09/09/2023,06:29:04,0.042,0.0,0.016,0.0
09/09/2023,06:30:05,0.043,0.0,0.017,0.001
09/09/2023,06:31:04,0.045,0.0,0.018,0.001
09/09/2023,06:32:05,0.046,0.0,0.019,0.001
09/09/2023,06:33:04,0.048,0.0,0.019,0.0
09/09/2023,06:34:04,0.049,0.0,0.02,0.001
09/09/2023,06:35:05,0.050,0.0,0.021,0.001
09/09/2023,06:36:04,0.051,0.0,0.022,0.001
09/09/2023,06:37:04,0.053,0.0,0.023,0.001
09/09/2023,06:38:05,0.054,0.0,0.024,0.001
09/09/2023,06:39:04,0.057,0.0,0.025,0.001
09/09/2023,06:40:04,0.059,0.0,0.026,0.001
09/09/2023,06:41:04,0.059,0.0,0.027,0.001
09/09/2023,06:42:06,0.062,0.0,0.028,0.001
09/09/2023,06:43:05,0.063,0.0,0.029,0.001
09/09/2023,06:44:04,0.064,0.0,0.03,0.001
09/09/2023,06:45:04,0.067,0.0,0.031,0.001
09/09/2023,06:46:04,0.067,0.0,0.032,0.001
09/09/2023,06:47:05,0.070,0.0,0.033,0.001
09/09/2023,06:48:05,0.072,0.0,0.034,0.001
09/09/2023,06:49:05,0.074,0.0,0.035,0.001
09/09/2023,06:50:04,0.076,0.0,0.037,0.002
09/09/2023,06:51:04,0.078,0.0,0.038,0.001
09/09/2023,06:52:05,0.080,0.0,0.039,0.001
09/09/2023,06:53:05,0.081,0.0,0.041,0.002
09/09/2023,06:54:04,0.084,0.0,0.042,0.001
09/09/2023,06:55:04,0.086,0.0,0.043,0.001
09/09/2023,06:56:05,0.087,0.0,0.045,0.002
09/09/2023,06:57:04,0.090,0.0,0.046,0.001
09/09/2023,06:58:04,0.091,0.0,0.048,0.002
09/09/2023,06:59:04,0.094,0.0,0.049,0.001
09/09/2023,07:00:05,0.098,0.0,0.051,0.002
09/09/2023,07:01:04,0.099,0.0,0.053,0.002
09/09/2023,07:02:05,0.101,0.0,0.054,0.001
09/09/2023,07:03:04,0.104,0.0,0.056,0.002
09/09/2023,07:04:03,0.106,0.0,0.058,0.002
09/09/2023,07:05:03,0.109,0.0,0.059,0.001
09/09/2023,07:06:05,0.111,0.0,0.061,0.002
09/09/2023,07:07:04,0.114,0.0,0.063,0.002
09/09/2023,07:08:04,0.116,0.0,0.065,0.002
09/09/2023,07:09:03,0.119,0.0,0.067,0.002
09/09/2023,07:10:02,0.121,0.0,0.069,0.002
09/09/2023,07:11:04,0.124,0.0,0.071,0.002
09/09/2023,07:12:05,0.128,0.0,0.073,0.002
09/09/2023,07:13:04,0.129,0.0,0.075,0.002
09/09/2023,07:14:04,0.132,0.0,0.078,0.003
09/09/2023,07:15:04,0.136,0.0,0.08,0.002
09/09/2023,07:16:05,0.139,0.0,0.082,0.002
09/09/2023,07:17:04,0.142,0.0,0.084,0.002
09/09/2023,07:18:04,0.145,0.0,0.087,0.003
09/09/2023,07:19:05,0.148,0.0,0.089,0.002
09/09/2023,07:20:05,0.151,0.0,0.092,0.003
09/09/2023,07:21:04,0.154,0.0,0.094,0.002
09/09/2023,07:22:06,0.156,0.0,0.097,0.003
09/09/2023,07:23:04,0.160,0.0,0.099,0.002
09/09/2023,07:24:05,0.163,0.0,0.102,0.003
09/09/2023,07:25:04,0.167,0.0,0.105,0.003
09/09/2023,07:26:05,0.170,0.0,0.108,0.003
09/09/2023,07:27:04,0.175,0.0,0.111,0.003
09/09/2023,07:28:05,0.177,0.0,0.114,0.003
09/09/2023,07:29:05,0.181,0.0,0.116,0.002
09/09/2023,07:30:04,0.184,0.0,0.12,0.004
09/09/2023,07:31:04,0.187,0.0,0.123,0.003
09/09/2023,07:32:04,0.191,0.0,0.126,0.003
09/09/2023,07:33:05,0.195,0.0,0.129,0.003
09/09/2023,07:34:04,0.197,0.0,0.132,0.003
09/09/2023,07:35:05,0.202,0.0,0.136,0.004
09/09/2023,07:36:05,0.206,0.0,0.139,0.003
09/09/2023,07:37:05,0.208,0.0,0.142,0.003
09/09/2023,07:38:04,0.213,0.0,0.146,0.004
09/09/2023,07:39:04,0.217,0.0,0.15,0.004
09/09/2023,07:40:05,0.220,1.0,0.153,0.003
09/09/2023,07:41:04,0.224,1.0,0.157,0.004
09/09/2023,07:42:05,0.229,1.0,0.161,0.004
09/09/2023,07:43:04,0.232,1.0,0.164,0.003
09/09/2023,07:44:04,0.237,1.0,0.168,0.004
09/09/2023,07:45:05,0.241,1.0,0.172,0.004
09/09/2023,07:46:05,0.245,1.0,0.176,0.004
09/09/2023,07:47:04,0.249,1.0,0.181,0.005
09/09/2023,07:48:04,0.253,1.0,0.185,0.004
09/09/2023,07:49:05,0.258,1.0,0.189,0.004
09/09/2023,07:50:05,0.262,1.0,0.193,0.004
09/09/2023,07:51:04,0.267,1.0,0.198,0.005
09/09/2023,07:52:05,0.271,1.0,0.202,0.004
09/09/2023,07:53:05,0.275,1.0,0.207,0.005
09/09/2023,07:54:05,0.280,1.0,0.211,0.004
09/09/2023,07:55:04,0.286,1.0,0.216,0.005
09/09/2023,07:56:04,0.289,1.0,0.221,0.005
09/09/2023,07:57:05,0.294,1.0,0.226,0.005
09/09/2023,07:58:04,0.298,1.0,0.231,0.005
09/09/2023,07:59:04,0.304,1.0,0.236,0.005
09/09/2023,08:00:05,0.308,1.0,0.241,0.005
09/09/2023,08:01:05,0.313,1.0,0.246,0.005
09/09/2023,08:02:05,0.318,1.0,0.251,0.005
09/09/2023,08:03:05,0.323,1.0,0.257,0.006
09/09/2023,08:04:04,0.328,1.0,0.262,0.005
09/09/2023,08:05:04,0.334,1.0,0.267,0.005
09/09/2023,08:06:05,0.338,1.0,0.273,0.006
09/09/2023,08:07:05,0.345,1.0,0.279,0.006
09/09/2023,08:08:05,0.350,1.0,0.285,0.006
09/09/2023,08:09:05,0.354,1.0,0.29,0.005
09/09/2023,08:10:05,0.360,1.0,0.296,0.006
09/09/2023,08:11:04,0.365,1.0,0.302,0.006
09/09/2023,08:12:03,0.371,1.0,0.308,0.006
09/09/2023,08:13:03,0.376,1.0,0.315,0.007
09/09/2023,08:14:05,0.381,1.0,0.321,0.006
09/09/2023,08:15:04,0.387,1.0,0.327,0.006
09/09/2023,08:16:04,0.392,1.0,0.334,0.007
09/09/2023,08:17:05,0.398,1.0,0.341,0.007
09/09/2023,08:18:05,0.403,1.0,0.347,0.006
09/09/2023,08:19:05,0.409,1.0,0.354,0.007
09/09/2023,08:20:04,0.415,1.0,0.361,0.007
09/09/2023,08:21:05,0.421,1.0,0.368,0.007
09/09/2023,08:22:05,0.426,1.0,0.375,0.007
09/09/2023,08:23:04,0.433,1.0,0.382,0.007
09/09/2023,08:24:04,0.438,1.0,0.389,0.007
09/09/2023,08:25:05,0.442,1.0,0.397,0.008
09/09/2023,08:26:05,0.449,1.0,0.404,0.007
09/09/2023,08:27:05,0.456,1.0,0.412,0.008
09/09/2023,08:28:05,0.462,1.0,0.419,0.007
09/09/2023,08:29:03,0.467,1.0,0.427,0.008
09/09/2023,08:30:03,0.474,1.0,0.435,0.008
09/09/2023,08:31:05,0.479,1.0,0.443,0.008
09/09/2023,08:32:04,0.487,1.0,0.451,0.008
09/09/2023,08:33:05,0.492,1.0,0.459,0.008
09/09/2023,08:34:05,0.498,1.0,0.467,0.008
09/09/2023,08:35:04,0.506,1.0,0.476,0.009
09/09/2023,08:36:05,0.512,1.0,0.484,0.008
09/09/2023,08:37:05,0.518,1.0,0.493,0.009
09/09/2023,08:38:03,0.524,1.0,0.501,0.008
09/09/2023,08:39:02,0.530,1.0,0.51,0.009
09/09/2023,08:40:05,0.537,1.0,0.519,0.009
09/09/2023,08:41:05,0.543,1.0,0.528,0.009
09/09/2023,08:42:05,0.549,1.0,0.537,0.009
09/09/2023,08:43:05,0.555,1.0,0.546,0.009
09/09/2023,08:44:05,0.560,1.0,0.556,0.01
09/09/2023,08:45:04,0.567,1.0,0.565,0.009
09/09/2023,08:46:04,0.573,1.0,0.575,0.01
09/09/2023,08:47:05,0.578,1.0,0.584,0.009
09/09/2023,08:48:04,0.586,1.0,0.594,0.01
09/09/2023,08:49:05,0.591,1.0,0.604,0.01
09/09/2023,08:50:05,0.598,1.0,0.614,0.01
09/09/2023,08:51:05,0.606,1.0,0.624,0.01
09/09/2023,08:52:05,0.612,1.0,0.634,0.01
09/09/2023,08:53:05,0.618,1.0,0.644,0.01
09/09/2023,08:54:05,0.627,1.0,0.654,0.01
09/09/2023,08:55:05,0.632,1.0,0.665,0.011
09/09/2023,08:56:05,0.638,1.0,0.675,0.01
09/09/2023,08:57:05,0.646,1.0,0.687,0.012
09/09/2023,08:58:04,0.653,2.0,0.697,0.01
09/09/2023,08:59:05,0.659,2.0,0.708,0.011
09/09/2023,09:00:05,0.665,2.0,0.719,0.011
09/09/2023,09:01:04,0.674,2.0,0.73,0.011
09/09/2023,09:02:05,0.680,2.0,0.742,0.012
09/09/2023,09:03:05,0.686,2.0,0.753,0.011
09/09/2023,09:04:05,0.694,2.0,0.764,0.011
09/09/2023,09:05:05,0.702,2.0,0.776,0.012
09/09/2023,09:06:05,0.708,2.0,0.788,0.012
09/09/2023,09:07:04,0.714,2.0,0.799,0.011
09/09/2023,09:08:04,0.722,2.0,0.811,0.012
09/09/2023,09:09:04,0.729,2.0,0.824,0.013
09/09/2023,09:10:04,0.736,2.0,0.836,0.012
09/09/2023,09:11:05,0.743,2.0,0.848,0.012
09/09/2023,09:12:05,0.751,2.0,0.861,0.013
09/09/2023,09:13:04,0.757,2.0,0.873,0.012
09/09/2023,09:14:05,0.763,2.0,0.886,0.013
09/09/2023,09:15:04,0.770,2.0,0.899,0.013
09/09/2023,09:16:05,0.776,2.0,0.911,0.012
09/09/2023,09:17:05,0.783,2.0,0.924,0.013
09/09/2023,09:18:04,0.789,2.0,0.937,0.013
09/09/2023,09:19:05,0.793,2.0,0.951,0.014
09/09/2023,09:20:05,0.801,2.0,0.964,0.013
09/09/2023,09:21:04,0.809,2.0,0.977,0.013
09/09/2023,09:22:05,0.812,2.0,0.991,0.014
09/09/2023,09:23:05,0.820,2.0,1.005,0.014
09/09/2023,09:24:05,0.828,2.0,1.019,0.014
09/09/2023,09:25:05,0.833,2.0,1.032,0.013
09/09/2023,09:26:04,0.842,2.0,1.046,0.014
09/09/2023,09:27:05,0.847,2.0,1.06,0.014
09/09/2023,09:28:04,0.852,2.0,1.074,0.014
09/09/2023,09:29:05,0.860,2.0,1.088,0.014
09/09/2023,09:30:04,0.868,2.0,1.103,0.015
09/09/2023,09:31:05,0.878,2.0,1.117,0.014
09/09/2023,09:32:05,0.886,2.0,1.133,0.016
09/09/2023,09:33:05,0.892,2.0,1.147,0.014
09/09/2023,09:34:05,0.901,2.0,1.162,0.015
09/09/2023,09:35:04,0.908,2.0,1.177,0.015
09/09/2023,09:36:04,0.914,2.0,1.192,0.015
09/09/2023,09:37:05,0.923,2.0,1.207,0.015
09/09/2023,09:38:05,0.929,2.0,1.223,0.016
09/09/2023,09:39:05,0.937,2.0,1.238,0.015
09/09/2023,09:40:05,0.944,2.0,1.254,0.016
09/09/2023,09:41:04,0.947,2.0,1.27,0.016
09/09/2023,09:42:05,0.954,2.0,1.286,0.016
09/09/2023,09:43:04,0.959,2.0,1.302,0.016
09/09/2023,09:44:04,0.971,2.0,1.318,0.016
09/09/2023,09:45:05,0.978,2.0,1.334,0.016
09/09/2023,09:46:05,0.986,2.0,1.351,0.017
09/09/2023,09:47:05,0.993,2.0,1.367,0.016
09/09/2023,09:48:05,1.003,2.0,1.383,0.016
09/09/2023,09:49:04,1.011,2.0,1.4,0.017
09/09/2023,09:50:05,1.013,2.0,1.417,0.017
09/09/2023,09:51:04,1.021,2.0,1.434,0.017
09/09/2023,09:52:04,1.032,2.0,1.451,0.017
09/09/2023,09:53:05,1.037,2.0,1.469,0.018
09/09/2023,09:54:05,1.046,2.0,1.486,0.017
09/09/2023,09:55:05,1.046,2.0,1.503,0.017
09/09/2023,09:56:05,1.055,2.0,1.521,0.018
09/09/2023,09:57:04,1.061,2.0,1.538,0.017
09/09/2023,09:58:04,1.063,2.0,1.556,0.018
09/09/2023,09:59:05,1.070,2.0,1.574,0.018
09/09/2023,10:00:05,1.066,2.0,1.592,0.018
09/09/2023,10:01:05,1.061,2.0,1.609,0.017
09/09/2023,10:02:05,1.079,2.0,1.628,0.019
09/09/2023,10:03:05,1.090,3.0,1.645,0.017
09/09/2023,10:04:05,1.098,3.0,1.663,0.018